VE3KSR Weather Reports


Display with metric or nautical units.
time (UTC)temp
F
wind
direction
speed
MPH
gust
MPH
rain 1hr
in
rain 24hr
in
rain mn
in
humidity
%
barometer
mb
20260507130324 37 0 0.0 0.0 5.64 0.00 0.00 90 1024.2
20260507130311 37 0 0.0 0.0 5.64 0.00 0.00 90 1024.2
20260507125815 37 0 0.0 0.0 5.64 0.00 0.00 91 1024.3
20260507125810 37 0 0.0 0.0 5.64 0.00 0.00 91 1024.3
20260507125315 37 0 0.0 0.0 5.64 0.00 0.00 91 1024.3
20260507125310 37 0 0.0 0.0 5.64 0.00 0.00 91 1024.3
20260507124810 37 0 0.0 0.0 5.64 0.00 0.00 92 1024.3
20260507124310 37 0 0.0 0.0 5.64 0.00 0.00 92 1024.1
20260507123811 37 0 0.0 0.0 5.64 0.00 0.00 92 1024.0
20260507123310 40 0 0.0 0.0 5.64 0.00 0.00 92 1024.4
20260507122810 37 0 0.0 0.0 5.64 0.00 0.00 92 1024.2
20260507122310 40 0 0.0 0.0 5.64 0.00 0.00 93 1024.1
20260507121811 40 0 0.0 0.0 5.64 0.00 0.00 93 1024.0
20260507121310 40 0 0.0 0.0 5.64 0.00 0.00 94 1023.9
20260507120810 41 0 0.0 0.0 5.64 0.00 0.00 94 1023.9
20260507120310 37 0 0.0 0.0 5.64 0.00 0.00 95 1024.0
20260507115811 37 0 0.0 0.0 5.64 0.00 0.00 96 1023.8
20260507115310 36 0 0.0 0.0 5.64 0.00 0.00 96 1023.8
20260507114810 36 0 0.0 0.0 5.64 0.00 0.00 96 1023.8
20260507114310 35 0 0.0 0.0 5.64 0.00 0.00 97 1023.7
20260507113810 35 0 0.0 0.0 5.64 0.00 0.00 97 1024.0
20260507113310 35 0 0.0 0.0 5.64 0.00 0.00 97 1023.7
20260507112810 35 0 0.0 0.0 5.64 0.00 0.00 97 1024.0
20260507112310 35 0 0.0 0.0 5.64 0.00 0.00 97 1023.9
20260507111812 35 0 0.0 0.0 5.64 0.00 0.00 97 1024.0
20260507111314 36 0 0.0 0.0 5.64 0.00 0.00 97 1023.9
20260507110810 34 0 0.0 0.0 5.64 0.00 0.00 97 1023.8
20260507110310 38 0 0.0 0.0 5.64 0.00 0.00 97 1023.8
20260507105810 44 0 0.0 0.0 5.64 0.00 0.00 97 1023.6
20260507105310 44 0 0.0 0.0 5.64 0.00 0.00 97 1023.8
20260507104810 42 0 0.0 0.0 5.64 0.00 0.00 97 1023.7
20260507104310 44 0 0.0 0.0 5.64 0.00 0.00 97 1023.6
20260507103810 -12 0 0.0 0.0 5.64 0.00 0.00 97 1023.5
20260507103310 -13 0 0.0 0.0 5.64 0.00 0.00 97 1023.5
20260507102810 -14 0 0.0 0.0 5.64 0.00 0.00 97 1023.5
20260507102310 -13 0 0.0 0.0 5.64 0.00 0.00 97 1023.4
20260507101810 -14 0 0.0 0.0 5.64 0.00 0.00 97 1023.5
20260507101310 -12 0 0.0 0.0 5.64 0.00 0.00 98 1023.3
20260507100810 -12 0 0.0 0.0 5.64 0.00 0.00 98 1023.3
20260507100310 13 0 0.0 0.0 5.64 0.00 0.00 99 1023.4
20260507095810 -8 0 0.0 0.0 5.64 0.00 0.00 99 1023.3
20260507095310 -8 0 0.0 0.0 5.64 0.00 0.00 100 1023.4
20260507094810 -14 0 0.0 0.0 5.64 0.00 0.00 100 1023.4
20260507094310 -10 0 0.0 0.0 5.64 0.00 0.00 100 1023.4
20260507093810 -13 0 0.0 0.0 5.64 0.00 0.00 100 1023.3
20260507093310 -5 0 0.0 0.0 5.64 0.00 0.00 100 1023.2
20260507092810 -4 0 0.0 0.0 5.64 0.00 0.00 100 1023.3
20260507092310 -4 0 0.0 0.0 5.64 0.00 0.00 100 1023.3
20260507091810 -4 0 0.0 0.0 5.64 0.00 0.00 100 1023.4
20260507091311 -12 0 0.0 0.0 5.64 0.00 0.00 100 1023.3
20260507090810 -13 0 0.0 0.0 5.64 0.00 0.00 100 1023.5
20260507090311 -7 0 0.0 0.0 5.64 0.00 0.00 99 1023.3
20260507085810 -8 0 0.0 0.0 5.64 0.00 0.00 99 1023.6
20260507085310 -8 0 0.0 0.0 5.64 0.00 0.00 99 1023.5
20260507084811 -7 0 0.0 0.0 5.64 0.00 0.00 99 1023.4
20260507084310 -13 0 0.0 0.0 5.64 0.00 0.00 99 1023.6
20260507083810 4 0 0.0 0.0 5.64 0.00 0.00 98 1023.7
20260507083310 -7 0 0.0 0.0 5.64 0.00 0.00 97 1023.9
20260507082811 -11 0 0.0 0.0 5.64 0.00 0.00 96 1023.8
20260507082310 -5 0 0.0 0.0 5.64 0.00 0.00 95 1024.0
20260507081810 -12 0 0.0 0.0 5.64 0.00 0.00 94 1024.0
20260507081310 -7 0 0.0 0.0 5.64 0.00 0.00 94 1024.1
20260507080810 -10 0 0.0 0.0 5.64 0.00 0.00 91 1024.1
20260507080310 -5 0 0.0 0.0 5.64 0.00 0.00 91 1023.8
20260507075810 -9 0 0.0 0.0 5.64 0.00 0.00 90 1023.8
20260507075310 -11 0 0.0 0.0 5.64 0.00 0.00 88 1023.6
20260507074812 3 0 0.0 0.0 5.64 0.00 0.00 84 1023.9
20260507074310 1 0 0.0 0.0 5.64 0.00 0.00 84 1023.8
20260507073810 -4 0 0.0 0.0 5.64 0.00 0.00 82 1023.7
20260507073311 9 0 0.0 0.0 5.64 0.00 0.00 82 1023.5
20260507072811 10 0 0.0 0.0 5.64 0.00 0.00 81 1023.4
20260507072310 10 0 0.0 0.0 5.64 0.00 0.00 80 1023.4
20260507071811 11 0 0.0 0.0 5.64 0.00 0.00 80 1023.6
20260507071312 11 0 0.0 0.0 5.64 0.00 0.00 81 1023.5
20260507070810 11 0 0.0 0.0 5.64 0.00 0.00 81 1023.6
20260507070311 12 0 0.0 0.0 5.64 0.00 0.00 80 1023.7
20260507065811 12 0 0.0 0.0 5.64 0.00 0.00 78 1023.6
20260507065311 12 0 0.0 0.0 5.64 0.00 0.00 79 1023.4
20260507064811 13 0 0.0 0.0 5.64 0.00 0.00 79 1023.4
20260507064311 14 0 0.0 0.0 5.64 0.00 0.00 78 1023.3
20260507063811 14 0 0.0 0.0 5.64 0.00 0.00 78 1023.2
20260507063311 14 0 0.0 0.0 5.64 0.00 0.00 78 1023.1
20260507062811 15 0 0.0 0.0 5.64 0.00 0.00 77 1023.1
20260507062311 15 0 0.0 0.0 5.64 0.00 0.00 78 1023.3
20260507061813 16 0 0.0 0.0 5.64 0.00 0.00 78 1023.3
20260507061311 17 0 0.0 0.0 5.64 0.00 0.00 79 1023.4
20260507060811 18 0 0.0 0.0 5.64 0.00 0.00 79 1023.4
20260507060311 19 0 0.0 0.0 5.64 0.00 0.00 78 1023.4
20260507055811 19 0 0.0 0.0 5.64 0.00 0.00 78 1023.4
20260507055311 20 0 0.0 0.0 5.64 0.00 0.00 77 1023.4
20260507054811 19 0 0.0 0.0 5.64 0.00 0.00 76 1023.4
20260507054311 19 0 0.0 0.0 5.64 0.00 0.00 76 1023.4
20260507053811 23 0 0.0 0.0 5.64 0.00 0.00 75 1023.4
20260507053311 23 0 0.0 0.0 5.64 0.00 0.00 74 1023.5
20260507052811 22 0 0.0 0.0 5.64 0.00 0.00 73 1023.5
20260507052312 22 0 0.0 0.0 5.64 0.00 0.00 72 1023.5
20260507051811 22 0 0.0 0.0 5.64 0.00 0.00 72 1023.5
20260507051312 23 0 0.0 0.0 5.64 0.00 0.00 71 1023.3
20260507050811 23 0 0.0 0.0 5.64 0.00 0.00 71 1023.3
20260507050311 24 0 0.0 0.0 5.64 0.00 0.00 71 1023.3
20260507045811 23 0 0.0 0.0 5.64 0.00 0.00 70 1023.3
20260507045312 23 0 0.0 0.0 5.64 0.00 0.00 70 1023.2
20260507044811 24 0 0.0 0.0 5.64 0.00 0.00 69 1023.3
20260507044311 25 0 0.0 0.0 5.64 0.00 0.00 69 1023.3
20260507043811 26 0 0.0 0.0 5.64 0.00 0.00 68 1023.2
20260507043312 27 0 0.0 0.0 5.64 0.00 0.00 68 1023.3
20260507042811 26 0 0.0 0.0 5.64 0.00 0.00 67 1023.3
20260507042311 25 0 0.0 0.0 5.64 0.00 0.00 67 1023.4
20260507041812 28 0 0.0 0.0 5.64 0.00 0.00 66 1023.3
20260507041311 28 0 0.0 0.0 5.64 0.00 0.00 65 1023.3
20260507040819 29 0 0.0 0.0 5.64 0.00 0.00 65 1023.3
20260507040312 28 0 0.0 0.0 5.64 0.00 0.00 65 1023.2
20260507035811 29 0 0.0 0.0 5.64 0.00 0.00 65 1023.2
20260507035311 29 0 0.0 0.0 5.64 0.00 0.00 64 1023.3
20260507034811 29 0 0.0 0.0 5.64 0.00 0.00 64 1023.2
20260507034312 29 0 0.0 0.0 5.64 0.00 0.00 64 1023.3
20260507033811 30 0 0.0 0.0 5.64 0.00 0.00 64 1023.2
20260507033311 31 0 0.0 0.0 5.64 0.00 0.00 64 1023.2
20260507032811 31 0 0.0 0.0 5.64 0.00 0.00 63 1023.3
20260507032311 31 0 0.0 0.0 5.64 0.00 0.00 63 1023.3
20260507031811 31 0 0.0 0.0 5.64 0.00 0.00 63 1023.3
20260507031311 31 0 0.0 0.0 5.64 0.00 0.00 63 1023.3
20260507030811 31 0 0.0 0.0 5.64 0.00 0.00 63 1023.3
20260507030311 32 0 0.0 0.0 5.64 0.00 0.00 63 1023.3
20260507025811 32 0 0.0 0.0 5.64 0.00 0.00 63 1023.3
20260507025311 32 0 0.0 0.0 5.64 0.00 0.00 63 1023.2
20260507024811 32 0 0.0 0.0 5.64 0.00 0.00 63 1023.1
20260507024311 32 0 0.0 0.0 5.64 0.00 0.00 63 1023.1
20260507023812 33 0 0.0 0.0 5.64 0.00 0.00 63 1023.1
20260507023311 32 0 0.0 0.0 5.64 0.00 0.00 62 1023.1
20260507022812 33 0 0.0 0.0 5.64 0.00 0.00 63 1023.1
20260507022311 33 0 0.0 0.0 5.64 0.00 0.00 62 1023.0
20260507021812 34 0 0.0 0.0 5.64 0.00 0.00 62 1023.0
20260507021311 34 0 0.0 0.0 5.64 0.00 0.00 62 1023.0
20260507020813 34 0 0.0 0.0 5.64 0.00 0.00 62 1023.0
20260507020311 34 0 0.0 0.0 5.64 0.00 0.00 62 1022.9
20260507015811 35 0 0.0 0.0 5.64 0.00 0.00 62 1023.0
20260507015311 35 0 0.0 0.0 5.64 0.00 0.00 62 1023.0
20260507014812 36 0 0.0 0.0 5.64 0.00 0.00 62 1023.0
20260507014311 36 0 0.0 0.0 5.64 0.00 0.00 62 1023.1
20260507013811 36 0 0.0 0.0 5.64 0.00 0.00 62 1023.1
20260507013311 36 0 0.0 0.0 5.64 0.00 0.00 62 1023.1
20260507012811 37 0 0.0 0.0 5.64 0.00 0.00 62 1023.2
20260507012311 37 0 0.0 0.0 5.64 0.00 0.00 62 1023.2
20260507011811 37 0 0.0 0.0 5.64 0.00 0.00 62 1023.2
20260507011311 37 0 0.0 0.0 5.64 0.00 0.00 62 1023.1
20260507010811 37 0 0.0 0.0 5.64 0.00 0.00 62 1023.1
20260507010311 37 0 0.0 0.0 5.64 0.00 0.00 62 1023.1
20260507005811 37 0 0.0 0.0 5.64 0.00 0.00 63 1023.2
20260507005311 37 0 0.0 0.0 5.64 0.00 0.00 62 1023.1
20260507004811 37 0 0.0 0.0 5.64 0.00 0.00 62 1023.1
20260507004311 38 0 0.0 0.0 5.64 0.00 0.00 62 1023.0
20260507003811 38 0 0.0 0.0 5.64 0.00 0.00 62 1022.9
20260507003311 38 0 0.0 0.0 5.64 0.00 0.00 62 1022.8
20260507002811 38 0 0.0 0.0 5.64 0.00 0.00 62 1022.8
20260507002311 34 0 0.0 0.0 5.64 0.00 0.00 61 1022.6
20260507001812 31 0 0.0 0.0 5.64 0.00 0.00 61 1022.5
20260507001312 36 333 0.0 2.0 5.64 0.00 0.00 61 1022.5
20260507000811 37 0 0.0 0.0 5.64 0.00 0.00 60 1022.5
20260507000313 37 0 0.0 0.0 5.64 0.00 0.00 60 1022.6
20260506235812 38 0 0.0 0.0 5.64 0.00 0.00 59 1022.5
20260506235312 38 0 0.0 0.0 5.64 0.00 0.00 60 1022.3
20260506234812 38 0 0.0 0.0 5.64 0.00 0.00 60 1022.5
20260506234312 38 0 0.0 0.0 5.64 0.00 0.00 60 1022.3
20260506233812 38 0 0.0 0.0 5.64 0.00 0.00 59 1022.3
20260506233312 38 333 0.0 2.0 5.64 0.00 0.00 59 1022.3
20260506232812 38 359 0.0 2.0 5.64 0.00 0.00 60 1022.5
20260506232312 38 359 0.0 3.0 5.64 0.00 0.00 59 1022.3
20260506231812 37 0 0.0 0.0 5.64 0.00 0.00 60 1022.6
20260506231312 37 0 0.0 0.0 5.64 0.00 0.00 59 1022.6
20260506230812 39 0 0.0 0.0 5.64 0.00 0.00 60 1022.5
20260506230312 40 0 0.0 0.0 5.64 0.00 0.00 59 1022.3
20260506225812 41 0 0.0 0.0 5.64 0.00 0.00 58 1022.2
20260506225312 41 0 0.0 0.0 5.64 0.00 0.00 59 1022.5
20260506224812 41 0 0.0 0.0 5.64 0.00 0.00 58 1022.5
20260506224312 41 0 0.0 0.0 5.64 0.00 0.00 58 1022.3
20260506223812 41 0 0.0 0.0 5.64 0.00 0.00 59 1022.3
20260506223312 41 0 0.0 0.0 5.64 0.00 0.00 59 1022.2
20260506222812 41 359 0.0 3.0 5.64 0.00 0.00 60 1022.3
20260506222312 41 0 0.0 0.0 5.64 0.00 0.00 59 1022.2
20260506221812 41 0 0.0 0.0 5.64 0.00 0.00 61 1022.2
20260506221313 41 0 0.0 0.0 5.64 0.00 0.00 59 1022.2
20260506220812 41 0 0.0 0.0 5.64 0.00 0.00 60 1022.0
20260506220312 41 0 0.0 0.0 5.64 0.00 0.00 61 1022.1
20260506215813 41 0 0.0 0.0 5.64 0.00 0.00 60 1021.9
20260506215312 41 285 0.0 2.0 5.64 0.00 0.00 59 1021.9
20260506214813 42 285 1.0 5.0 5.64 0.00 0.00 58 1021.9
20260506214414 42 0 0.0 0.0 5.64 0.00 0.00 60 1021.7
20260506214312 42 0 0.0 0.0 5.64 0.00 0.00 60 1021.7
20260506213812 42 0 0.0 0.0 5.64 0.00 0.00 60 1021.5
20260506213312 42 285 0.0 4.0 5.64 0.00 0.00 60 1021.5
20260506212812 42 326 1.0 6.0 5.64 0.00 0.00 60 1021.5
20260506212312 42 0 0.0 0.0 5.64 0.00 0.00 59 1021.5
20260506211812 42 0 0.0 0.0 5.64 0.00 0.00 59 1021.6
20260506211312 42 359 0.0 2.0 5.64 0.00 0.00 62 1021.5
20260506210812 42 347 0.0 2.0 5.64 0.00 0.00 58 1021.4
20260506210312 43 347 1.0 3.0 5.64 0.00 0.00 59 1021.2
20260506205813 42 0 0.0 0.0 5.64 0.00 0.00 61 1021.2
20260506205312 42 0 0.0 0.0 5.64 0.00 0.00 64 1021.2
20260506204812 42 304 1.0 8.0 5.64 0.00 0.00 64 1021.3
20260506204312 42 359 0.0 3.0 5.64 0.00 0.00 61 1021.2
20260506203812 42 359 1.0 4.0 5.64 0.00 0.00 63 1021.2
20260506203312 42 359 1.0 4.0 5.64 0.00 0.00 63 1021.2
20260506202812 42 359 1.0 4.0 5.64 0.00 0.00 64 1021.3
20260506202312 42 359 0.0 3.0 5.64 0.00 0.00 64 1021.2
20260506201812 42 359 0.0 1.0 5.64 0.00 0.00 65 1021.2
20260506201312 42 359 1.0 3.0 5.64 0.00 0.00 64 1021.2
20260506200812 42 0 0.0 0.0 5.64 0.00 0.00 65 1021.3
20260506200312 42 359 0.0 2.0 5.64 0.00 0.00 66 1021.2
20260506195813 42 359 1.0 2.0 5.64 0.00 0.00 66 1021.1
20260506195313 42 359 0.0 2.0 5.64 0.00 0.00 63 1021.1
20260506194812 43 0 0.0 0.0 5.64 0.00 0.00 64 1021.2
20260506194312 43 0 0.0 0.0 5.64 0.00 0.00 63 1021.1
20260506193812 43 0 0.0 0.0 5.64 0.00 0.00 65 1021.2
20260506193312 43 0 0.0 0.0 5.64 0.00 0.00 66 1021.2
20260506192812 43 0 0.0 0.0 5.64 0.00 0.00 65 1021.3
20260506192312 43 0 0.0 0.0 5.64 0.00 0.00 63 1021.2
20260506191812 43 301 0.0 3.0 5.64 0.00 0.00 63 1021.2
20260506191312 43 312 13.0 16.0 5.64 0.00 0.00 64 1021.1
20260506190812 43 359 16.0 23.0 5.64 0.00 0.00 61 1021.3
20260506190312 43 115 16.0 20.0 5.64 0.00 0.00 64 1021.2
20260506185812 43 295 14.0 18.0 5.64 0.00 0.00 65 1021.1
20260506185313 43 325 1.0 4.0 5.64 0.00 0.00 65 1021.1
20260506184812 43 7 13.0 22.0 5.64 0.00 0.00 65 1020.9
20260506184312 43 0 0.0 0.0 5.64 0.00 0.00 66 1021.1
20260506183812 43 0 0.0 0.0 5.64 0.00 0.00 64 1020.9
20260506183312 43 0 0.0 0.0 5.64 0.00 0.00 67 1020.9
20260506182812 43 0 0.0 0.0 5.64 0.00 0.00 66 1020.8
20260506182312 43 359 1.0 5.0 5.64 0.00 0.00 66 1020.8
20260506181812 43 359 0.0 5.0 5.64 0.00 0.00 66 1020.8
20260506181312 43 0 0.0 0.0 5.64 0.00 0.00 68 1020.8
20260506180813 43 0 0.0 0.0 5.64 0.00 0.00 68 1020.9
20260506180312 43 340 0.0 4.0 5.64 0.00 0.00 67 1021.0
20260506175814 43 340 1.0 5.0 5.64 0.00 0.00 72 1020.9
20260506175313 42 359 1.0 5.0 5.64 0.00 0.00 69 1020.8
20260506174812 42 0 0.0 0.0 5.64 0.00 0.00 67 1020.8
20260506174312 42 0 0.0 0.0 5.64 0.00 0.00 74 1021.0
20260506173812 42 0 0.0 0.0 5.64 0.00 0.00 72 1021.0
20260506173312 42 359 1.0 5.0 5.64 0.00 0.00 72 1020.9
20260506172812 42 330 0.0 2.0 5.64 0.00 0.00 70 1020.9
20260506171313 41 0 0.0 0.0 5.64 0.00 0.00 78 1021.0
20260506170812 40 0 0.0 0.0 5.64 0.00 0.00 76 1020.9
20260506170313 41 339 2.0 8.0 5.64 0.00 0.00 76 1020.8
20260506165813 40 359 0.0 3.0 5.64 0.00 0.00 74 1020.8
20260506165313 40 0 0.0 0.0 5.64 0.00 0.00 76 1020.8
20260506164813 40 212 0.0 2.0 5.64 0.00 0.00 74 1020.8
20260506164313 40 314 13.0 19.0 5.64 0.00 0.00 75 1020.7
20260506163813 40 312 15.0 20.0 5.64 0.00 0.00 78 1020.9
20260506163313 40 315 13.0 21.0 5.64 0.00 0.00 78 1020.9
20260506162814 40 235 15.0 20.0 5.64 0.00 0.00 75 1020.6
20260506162313 41 0 0.0 0.0 5.64 0.00 0.00 76 1020.6
20260506161813 41 211 0.0 1.0 5.64 0.00 0.00 76 1020.3
20260506161313 41 49 2.0 7.0 5.64 0.00 0.00 81 1020.4
20260506160813 41 359 2.0 3.0 5.64 0.00 0.00 81 1020.3
20260506160313 41 0 0.0 0.0 5.64 0.00 0.00 84 1020.3
20260506155813 41 359 0.0 2.0 5.64 0.00 0.00 85 1020.3
20260506155313 40 338 1.0 6.0 5.64 0.00 0.00 85 1020.3
20260506154813 41 338 0.0 3.0 5.64 0.00 0.00 86 1020.3
20260506154314 41 0 0.0 0.0 5.64 0.00 0.00 87 1020.2
20260506153813 41 204 1.0 4.0 5.64 0.00 0.00 90 1020.3
20260506153313 41 0 0.0 0.0 5.64 0.00 0.00 91 1020.1
20260506152813 41 0 0.0 0.0 5.64 0.00 0.00 92 1020.0
20260506152314 41 0 0.0 0.0 5.64 0.00 0.00 92 1019.6
20260506151813 41 0 0.0 0.0 5.64 0.00 0.00 93 1019.6
20260506151313 41 0 0.0 0.0 5.64 0.00 0.00 95 1019.5
20260506150813 41 0 0.0 0.0 5.64 0.00 0.00 96 1019.8
20260506150313 41 0 0.0 0.0 5.64 0.00 0.00 96 1019.3
20260506145813 41 0 0.0 0.0 5.64 0.00 0.00 96 1019.1
20260506145313 42 0 0.0 0.0 5.64 0.00 0.00 96 1019.4
20260506144813 42 0 0.0 0.0 5.64 0.00 0.00 98 1019.5
20260506144313 42 0 0.0 0.0 5.64 0.00 0.00 99 1019.4
20260506143815 42 0 0.0 0.0 5.64 0.00 0.00 100 1019.1
20260506143313 42 0 0.0 0.0 5.64 0.00 0.00 100 1019.0
20260506142813 42 204 4.0 10.0 5.64 0.00 0.00 100 1019.1
20260506142313 41 0 0.0 0.0 5.64 0.00 0.00 100 1019.1
20260506141813 41 0 0.0 0.0 5.64 0.00 0.00 100 1018.9
20260506141313 41 0 0.0 0.0 5.64 0.00 0.00 100 1019.2
20260506140813 41 307 0.0 5.0 5.64 0.00 0.00 100 1018.9
20260506140313 41 0 0.0 0.0 5.64 0.00 0.00 100 1019.3
20260506135813 40 0 0.0 0.0 5.64 0.00 0.00 100 1019.4
20260506135313 41 0 0.0 0.0 5.64 0.00 0.00 100 1019.3
20260506134813 41 307 0.0 3.0 5.64 0.00 0.00 100 1019.4
20260506134609 41 0 0.0 0.0 5.64 0.00 0.00 100 1019.4
20260506134506 41 0 0.0 0.0 5.64 0.00 0.00 100 1019.4
20260506134347 41 0 0.0 0.0 5.64 0.00 0.00 100 1019.4
20260506134313 41 0 0.0 0.0 5.64 0.00 0.00 100 1019.4
20260506133813 41 0 0.0 0.0 5.64 0.00 0.00 100 1019.3
20260506133313 40 0 0.0 0.0 5.64 0.00 0.00 100 1019.1
20260506132813 41 0 0.0 0.0 5.64 0.00 0.00 100 1019.0
20260506132314 41 0 0.0 0.0 5.64 0.00 0.00 100 1019.0
20260506131814 41 0 0.0 0.0 5.64 0.00 0.00 81 1018.9
20260506131507 41 0 0.0 0.0 5.64 0.00 0.00 100 1019.1
20260506131345 41 0 0.0 0.0 5.64 0.00 0.00 100 1019.1
20260506131313 41 0 0.0 0.0 5.64 0.00 0.00 100 1019.1
20260506130813 40 0 0.0 0.0 5.64 0.00 0.00 100 1019.1